Tracking 22879 objects as of 21-Apr-2021
HD Live streaming from Space Station
objects crossing your sky now

STARLINK-2283

Track STARLINK-2283 now!
10-day predictions
STARLINK-2283 is classified as:


NORAD ID: 48014
Int'l Code: 2021-024AP
Perigee: 356.1 km
Apogee: 357.5 km
Inclination: 53.0 °
Period: 91.5 minutes
Semi major axis: 6727 km
RCS: Unknown
Launch date: March 24, 2021
Source: United States (US)
Launch site: AIR FORCE EASTERN TEST RANGE (AFETR)
aabbcc
Your satellite tracking list
Your tracking list is empty




NASA's NSSDC Master Catalog

Two Line Element Set (TLE):
1 48014U 21024AP  21110.83335648  .00006616  00000-0  51419-4 0  9994
2 48014  53.0484  67.6712 0001025  88.4079  64.1523 15.73243738  5128
Source of the keplerian elements: AFSPC